Temperature
17 17 17 17 16 16 16 16 16 16 16 16 16 16 16 16 15 15 15 15 15 15 15 15 15 15 15 15 15 15 15 15 14 14 13 13 13 13 13 13 13 13 13
17 17 17 17 16 16 16 16 16 16 16 16 16 16 16 16 15 15 15 15 15 15 15 15 15 15 15 15 15 15 14 14 14 14 14 13 13 13 13 13 13 13 13
17 17 17 17 17 16 16 16 16 16 16 16 16 16 16 16 15 15 15 15 15 15 15 15 15 15 15 15 15 15 14 14 14 14 14 13 13 13 13 13 13 13 13
17 17 17 17 17 17 17 16 16 16 16 16 16 16 16 16 15 15 15 15 15 15 15 15 15 15 15 15 15 14 14 14 14 14 14 13 13 13 13 13 13 13 13
17 17 17 17 17 17 17 17 16 16 16 16 16 16 16 16 15 15 15 15 15 15 15 15 15 15 15 15 14 14 14 14 14 14 14 13 13 13 13 13 13 13 12
17 17 17 17 17 17 17 17 16 16 16 16 16 16 16 16 15 15 15 15 15 15 15 15 15 15 14 14 14 14 14 14 14 14 14 13 13 13 13 13 13 12 12
18 17 17 17 17 17 17 17 17 16 16 16 16 16 16 16 16 15 15 15 15 15 15 15 15 15 14 14 14 14 14 14 14 13 13 13 13 13 13 12 12 12 12
18 17 17 17 17 17 17 17 17 16 16 16 16 16 16 16 16 16 15 15 15 15 15 15 15 15 14 14 14 14 14 14 13 13 13 13 13 12 12 12 12 12 12
18 18 17 17 17 17 17 16 16 16 16 16 16 16 16 16 15 15 15 15 15 15 15 15 15 14 14 14 14 14 14 13 13 13 13 13 13 12 12 12 12 12 12
18 18 17 17 17 17 17 16 16 16 16 16 16 16 16 15 15 15 15 15 15 15 15 14 14 14 14 14 14 14 14 13 13 13 13 13 12 12 12 12 12 11 11
18 18 17 17 17 17 16 16 16 16 16 16 15 15 15 15 15 15 15 15 15 15 15 15 14 14 14 14 14 14 13 13 13 13 13 12 12 12 12 12 11 11 11
18 17 17 17 17 16 16 16 16 16 16 15 15 15 15 15 15 15 15 15 15 15 15 14 14 14 14 13 13 13 13 13 13 12 12 12 12 12 12 11 11 11 11
18 17 17 17 17 16 16 16 16 16 15 15 15 15 15 15 15 14 14 14 14 14 14 14 14 13 13 13 13 13 13 12 12 12 12 12 12 11 11 11 11 10 10
17 17 17 17 16 16 16 16 16 15 15 15 15 15 15 15 14 14 14 14 14 14 14 13 13 13 13 13 13 12 12 12 12 12 12 11 11 11 11 11 10 10 10
17 17 17 16 16 16 16 16 15 15 15 15 15 15 15 14 14 14 14 14 14 13 13 13 13 13 13 12 12 12 12 12 11 11 11 11 11 11 10 10 10 10 9
17 17 17 16 16 16 16 15 15 15 15 14 14 14 14 14 14 13 13 13 13 13 13 13 12 12 12 12 12 11 11 11 11 11 10 10 10 10 10 9 9 9 9
17 17 16 16 16 16 15 15 15 14 14 14 14 14 13 13 13 13 13 13 12 12 12 12 12 12 11 11 11 11 10 10 10 10 10 10 9 9 9 9 8 8 8
17 16 16 16 16 15 15 15 15 14 14 14 13 13 13 13 13 13 12 12 12 12 11 11 11 11 10 10 10 10 10 10 9 9 9 9 9 8 8 8 8 7 7
16 16 16 15 15 15 15 14 14 14 14 13 13 13 13 12 12 12 12 11 11 11 11 11 10 10 10 10 9 9 9 9 9 9 8 8 8 8 7 7 7 7 6
16 15 15 15 15 14 14 14 13 13 13 13 13 12 12 12 12 11 11 11 11 10 10 10 10 9 9 9 9 9 8 8 8 8 7 7 7 7 6 6 6 6 6
15 15 14 14 14 14 14 13 13 13 12 12 12 12 11 11 11 11 11 10 10 10 9 9 9 9 9 8 8 8 8 7 7 7 6 6 6 6 6 5 5 5 5
14 14 14 14 13 13 13 13 12 12 12 12 11 11 11 11 10 10 10 10 9 9 9 9 8 8 8 8 7 7 7 6 6 6 6 5 5 5 5 5 5 4 4
14 14 13 13 13 12 12 12 12 11 11 11 11 10 10 10 10 9 9 9 9 8 8 8 8 8 7 7 7 6 6 6 6 5 5 5 5 4 4 4 4 4 3
13 13 12 12 12 12 11 11 11 11 10 10 10 10 9 9 9 9 8 8 8 8 7 7 7 7 7 6 6 6 5 5 5 4 4 4 4 4 3 3 3 3 3
12 12 12 12 11 11 11 11 10 10 10 10 9 9 9 8 8 8 8 7 7 7 7 7 6 6 6 6 5 5 5 4 4 4 4 3 3 3 3 3 2 2 2
12 11 11 11 11 10 10 10 10 9 9 9 9 8 8 8 7 7 7 7 6 6 6 6 6 5 5 5 5 4 4 4 3 3 3 3 2 2 2 2 1 1 1
Wind_Speed
8 7 7 6 5 6 5 5 5 4 5 5 4 4 4 4 4 4 4 4 5 4 4 5 4 4 4 3 3 3 3 3 4 0 0 1 1 2 3 4 5 6 6
8 7 7 6 6 5 5 4 4 5 5 5 4 4 4 4 4 5 4 4 5 4 3 4 3 4 4 3 4 4 3 3 4 3 1 1 1 1 2 2 3 4 5
8 8 7 6 6 6 5 4 4 5 5 4 5 5 4 4 4 4 4 4 4 4 3 4 3 4 4 3 4 4 3 3 3 3 1 1 1 1 2 2 3 3 4
9 9 8 7 7 6 6 5 5 5 6 5 5 5 4 4 4 4 4 4 4 3 3 4 4 4 4 4 4 4 4 4 3 3 2 1 1 1 2 2 2 2 2
10 9 8 7 7 6 6 5 5 5 6 5 5 4 4 4 4 5 4 5 4 3 2 2 2 4 5 5 4 4 4 3 3 3 2 1 1 1 1 0 1 2 2
10 9 8 7 7 7 6 6 5 5 5 5 5 5 4 3 5 7 6 5 4 4 3 2 1 2 4 6 6 6 6 5 4 3 1 1 1 1 0 1 1 1 2
10 9 9 8 8 7 7 7 6 6 5 5 5 5 4 4 6 7 7 5 4 3 3 2 2 2 3 3 4 4 2 3 5 5 4 3 3 3 2 1 1 2 2
10 9 9 9 8 7 7 7 6 5 6 5 4 5 4 3 6 8 8 5 4 3 3 3 3 3 3 4 4 2 1 1 1 3 4 4 4 4 4 3 3 1 1
11 10 10 10 9 8 8 7 6 5 5 4 4 5 4 3 5 6 7 4 3 2 1 2 4 4 4 6 5 3 0 2 1 2 4 4 4 5 4 3 2 1 1
12 11 10 10 10 9 9 7 5 5 5 5 4 3 4 3 4 6 7 3 3 1 0 0 2 4 5 6 5 5 3 3 1 1 1 2 1 2 3 4 4 3 1
10 9 9 9 9 9 7 6 6 5 5 5 4 2 2 3 3 5 7 4 4 3 2 1 1 3 4 5 5 4 5 3 1 1 1 2 2 2 2 2 4 4 3
9 9 8 8 8 7 8 6 6 7 6 5 3 2 1 1 2 3 5 6 5 4 3 2 2 3 3 4 4 4 4 2 1 0 1 2 2 2 2 3 4 5 6
9 8 8 8 7 7 8 8 6 6 5 4 4 3 2 1 1 2 4 5 6 4 3 3 3 2 2 1 2 3 2 2 1 1 2 3 3 3 2 1 2 2 3
10 9 8 8 6 6 6 6 6 6 6 5 4 4 2 1 1 1 2 2 3 3 1 1 1 1 1 1 1 1 1 2 3 3 3 3 2 1 2 1 1 1 2
10 9 8 7 7 6 5 4 5 5 7 7 6 5 5 4 4 5 4 3 3 3 3 2 2 1 1 1 1 1 1 1 1 2 2 2 2 2 2 2 1 1 1
9 8 7 6 6 6 6 4 4 3 5 6 7 6 4 5 4 5 5 5 5 6 5 2 1 1 1 2 1 1 1 1 2 2 2 2 2 2 3 2 1 1 2
9 8 6 6 6 6 6 6 4 3 5 4 3 5 4 4 4 4 4 4 5 7 3 1 1 2 2 1 1 2 2 2 2 1 2 2 2 2 2 2 2 2 2
8 8 8 6 6 6 6 5 5 5 3 1 2 2 3 4 4 5 6 6 3 2 1 2 2 2 2 2 2 2 2 2 1 1 2 2 2 2 2 2 2 3 3
8 6 6 6 6 6 5 5 5 5 4 3 2 2 3 4 5 5 6 3 2 1 1 2 2 2 2 2 2 2 1 1 1 1 2 2 2 2 2 3 3 4 3
6 9 8 6 6 6 5 5 5 4 4 3 2 1 2 4 3 2 2 1 1 1 1 2 2 1 1 1 1 1 1 1 2 2 2 2 2 2 3 3 3 3 3
6 7 9 7 6 6 5 5 5 5 4 3 2 2 5 4 3 2 2 1 1 1 1 1 1 1 1 1 1 1 1 2 2 2 2 2 2 2 3 3 3 3 3
6 6 6 6 5 5 5 5 5 5 4 4 2 3 5 3 2 2 1 1 1 1 1 1 0 0 1 1 1 1 2 2 2 2 2 2 2 2 2 2 3 3 3
7 7 6 5 5 6 6 4 4 4 4 3 3 3 3 2 2 2 1 1 1 1 2 2 1 1 2 2 1 0 1 2 3 2 2 3 3 3 3 3 4 4 4
7 7 7 6 5 5 5 4 4 4 4 4 3 3 2 2 2 2 1 1 2 2 3 2 2 1 1 2 2 2 2 3 3 3 3 3 3 3 3 3 4 5 5
7 7 6 6 6 5 5 5 4 4 4 3 3 3 3 2 2 1 1 1 1 1 2 2 2 2 2 1 1 2 3 4 4 4 3 2 3 3 4 4 4 5 5
7 6 6 5 5 5 5 4 4 4 4 3 3 3 3 2 1 1 1 1 1 1 2 2 2 2 2 2 2 3 4 5 5 5 4 3 3 3 4 4 5 5 6
Wind_Direction
166 164 157 164 161 151 151 158 159 155 150 150 150 135 119 109 103 101 99 96 92 78 76 86 80 81 78 71 82 90 95 114 128 233 310 357 41 56 58 63 59 58 53
164 157 157 159 153 150 154 156 155 156 155 156 150 139 138 130 121 118 116 108 110 106 98 95 86 89 79 71 80 83 89 102 128 129 14 13 34 59 68 68 53 53 49
158 156 156 158 159 163 163 155 153 150 146 146 142 145 148 145 133 130 125 120 122 126 126 120 114 104 91 84 86 88 85 83 93 117 89 18 23 40 55 45 41 36 32
159 162 165 170 173 172 166 155 151 144 144 146 145 145 146 142 140 136 125 118 113 111 119 128 132 134 135 126 109 106 105 89 86 96 81 37 25 17 62 55 24 9 4
161 167 176 174 170 161 156 154 148 140 144 143 134 128 128 135 147 142 135 133 128 115 95 109 133 145 153 149 137 134 123 110 101 98 88 48 19 30 25 14 71 355 351
166 174 174 166 165 163 160 153 145 141 136 134 136 137 139 144 145 144 141 133 134 137 133 114 110 117 125 124 130 139 144 142 146 141 144 161 236 231 199 125 118 50 325
171 172 170 167 167 169 161 151 152 152 141 136 139 141 145 159 151 143 138 134 136 148 155 153 146 138 126 116 102 100 100 150 169 163 169 202 209 211 177 162 183 186 228
171 172 172 168 170 167 157 159 161 154 151 152 154 154 152 173 160 148 140 127 131 153 175 176 164 162 166 153 133 103 61 358 201 173 186 210 215 201 186 185 187 182 295
176 178 178 173 170 166 166 169 167 155 157 162 162 162 162 186 178 162 143 129 136 165 203 179 168 174 187 164 143 145 130 317 22 167 195 219 229 219 183 129 111 97 308
184 182 176 173 170 173 177 173 163 157 164 161 161 170 170 184 189 174 156 143 153 178 206 232 186 183 183 167 160 165 192 244 247 27 14 342 320 274 216 183 174 171 206
179 171 168 171 173 174 171 164 154 153 151 154 159 171 181 195 194 181 171 160 172 177 188 224 242 197 191 184 173 180 202 195 168 191 304 318 329 317 292 224 195 178 189
160 161 166 169 172 167 157 160 154 151 151 157 156 165 218 227 195 188 182 181 173 171 200 216 227 212 199 192 191 203 200 161 129 108 313 298 292 285 276 261 237 222 220
154 161 163 164 167 162 160 161 153 154 159 167 165 177 209 239 249 218 198 192 184 182 203 202 206 207 199 217 222 217 195 169 174 210 247 258 254 258 274 300 298 268 269
158 164 162 159 155 153 157 160 160 166 170 171 175 185 192 197 232 225 207 201 193 195 205 193 137 126 151 281 309 292 215 200 202 227 246 256 273 283 274 258 263 295 312
159 161 159 154 153 147 145 155 166 178 180 179 187 184 180 201 225 198 177 184 186 182 138 88 58 41 353 324 318 302 288 267 243 247 249 269 280 280 276 268 235 218 236
155 156 157 156 154 149 141 114 72 105 149 169 175 173 187 195 186 181 184 182 169 145 126 131 177 206 232 247 262 289 291 269 258 251 253 254 263 267 278 290 275 246 261
156 157 155 156 153 152 152 150 137 65 67 97 143 162 170 166 161 161 161 153 142 136 128 172 201 219 238 247 248 250 267 269 261 251 256 263 266 270 275 283 286 284 279
148 152 151 155 155 154 155 155 154 151 140 74 34 96 142 143 134 134 127 113 102 123 173 203 224 236 243 248 252 256 273 293 289 274 269 272 269 265 274 280 273 270 273
139 144 143 141 142 144 143 141 142 144 141 134 98 53 89 101 92 94 110 114 146 184 215 231 238 235 242 246 251 255 258 268 281 281 281 277 273 265 272 276 275 278 273
135 137 135 135 135 135 137 139 141 140 139 140 148 161 114 93 90 91 105 119 141 186 213 232 249 250 253 258 262 264 276 284 293 285 284 287 282 271 270 273 275 280 277
131 135 129 125 132 138 140 144 147 145 147 150 166 151 136 130 144 150 154 169 193 216 233 240 263 281 281 276 263 259 259 271 272 272 277 281 282 281 279 273 271 272 278
129 127 127 128 127 129 133 135 135 138 145 144 134 117 126 121 130 133 140 163 204 198 183 166 215 267 272 247 244 245 259 269 271 270 271 274 276 277 278 278 279 278 278
126 125 123 122 123 125 123 124 131 136 139 139 134 122 120 128 132 136 142 157 137 86 68 79 84 35 15 7 356 187 236 259 267 262 264 270 272 274 273 273 276 283 280
124 126 127 126 122 123 123 124 127 130 131 129 126 127 130 134 131 133 140 130 98 73 66 66 61 45 26 21 13 351 314 303 304 294 268 264 270 271 272 275 276 276 278
119 121 123 125 126 126 125 123 124 125 124 126 126 124 123 123 122 118 129 110 97 80 54 44 31 21 15 7 360 355 347 342 338 332 312 283 272 271 271 274 278 282 283
115 117 119 121 123 125 127 127 125 124 124 126 126 128 129 129 129 117 121 102 89 42 22 15 7 12 12 7 347 338 333 330 326 324 324 307 285 285 287 286 288 287 285
Height
1552 1554 1556 1558 1560 1561 1562 1563 1564 1565 1565 1566 1566 1567 1567 1568 1568 1568 1568 1568 1568 1568 1568 1568 1568 1569 1569 1569 1570 1570 1571 1571 1571 1571 1572 1572 1571 1571 1570 1569 1568 1567 1566
1551 1554 1556 1558 1560 1561 1562 1563 1564 1565 1566 1567 1567 1568 1568 1568 1569 1569 1569 1569 1569 1569 1569 1569 1569 1570 1570 1570 1570 1571 1571 1571 1571 1571 1572 1572 1572 1571 1571 1570 1569 1568 1567
1550 1552 1555 1557 1559 1561 1562 1563 1564 1565 1566 1567 1568 1568 1569 1569 1569 1570 1570 1570 1570 1570 1570 1570 1570 1571 1570 1571 1571 1571 1571 1571 1572 1572 1572 1572 1572 1572 1571 1571 1570 1569 1568
1548 1551 1554 1556 1558 1560 1562 1563 1564 1566 1567 1567 1568 1569 1569 1570 1570 1570 1571 1571 1571 1571 1571 1571 1571 1571 1571 1571 1571 1572 1572 1572 1572 1572 1572 1572 1572 1572 1571 1571 1570 1569 1568
1546 1549 1553 1555 1558 1560 1561 1563 1564 1566 1567 1568 1569 1569 1570 1570 1570 1571 1571 1571 1571 1572 1572 1572 1572 1572 1572 1572 1572 1572 1572 1573 1573 1573 1572 1572 1572 1572 1571 1570 1570 1569 1568
1544 1548 1551 1554 1556 1558 1560 1562 1564 1565 1566 1568 1569 1569 1570 1570 1571 1571 1571 1571 1572 1572 1572 1572 1572 1572 1573 1573 1573 1573 1573 1573 1573 1573 1572 1572 1572 1571 1571 1570 1569 1568 1567
1542 1546 1549 1552 1555 1557 1559 1561 1563 1565 1566 1567 1568 1569 1570 1570 1571 1571 1571 1571 1572 1572 1572 1572 1572 1572 1572 1573 1573 1573 1572 1572 1573 1572 1572 1571 1571 1570 1570 1569 1568 1567 1566
1540 1543 1547 1550 1553 1556 1558 1560 1562 1564 1565 1566 1568 1568 1569 1570 1570 1570 1571 1571 1571 1571 1572 1572 1572 1572 1572 1572 1572 1572 1572 1572 1571 1571 1571 1570 1570 1569 1569 1568 1567 1566 1565
1537 1540 1544 1547 1550 1553 1556 1558 1560 1562 1564 1565 1567 1567 1568 1569 1569 1570 1570 1570 1570 1570 1571 1571 1571 1571 1571 1571 1571 1571 1571 1570 1570 1570 1569 1569 1568 1567 1567 1566 1565 1564 1563
1534 1537 1541 1545 1548 1550 1553 1556 1558 1560 1562 1564 1565 1566 1567 1567 1568 1568 1569 1569 1569 1569 1569 1570 1570 1570 1570 1570 1570 1569 1569 1569 1568 1568 1567 1567 1566 1565 1565 1564 1563 1562 1561
1531 1535 1538 1542 1545 1548 1551 1554 1556 1558 1560 1562 1563 1564 1565 1565 1566 1567 1567 1567 1568 1568 1568 1568 1568 1568 1568 1568 1568 1567 1567 1567 1566 1565 1565 1564 1563 1563 1562 1561 1561 1560 1559
1529 1533 1536 1539 1543 1546 1549 1551 1553 1556 1557 1559 1560 1561 1562 1563 1564 1565 1565 1565 1566 1566 1566 1566 1566 1566 1566 1566 1565 1565 1565 1564 1563 1563 1562 1561 1561 1560 1560 1559 1558 1557 1556
1527 1530 1534 1537 1540 1543 1546 1548 1551 1553 1554 1556 1557 1558 1559 1561 1562 1562 1563 1563 1563 1564 1564 1564 1564 1563 1563 1563 1563 1562 1562 1561 1560 1559 1559 1558 1558 1557 1556 1555 1555 1554 1553
1525 1528 1532 1535 1538 1541 1543 1546 1548 1549 1551 1553 1554 1556 1557 1558 1559 1560 1560 1561 1561 1561 1561 1561 1561 1560 1560 1560 1560 1559 1559 1558 1557 1556 1555 1555 1554 1553 1552 1551 1550 1549 1548
1523 1526 1529 1532 1535 1538 1540 1542 1545 1547 1549 1550 1552 1553 1554 1555 1556 1557 1557 1557 1558 1558 1558 1558 1557 1557 1557 1557 1556 1556 1555 1555 1554 1553 1552 1551 1550 1549 1548 1547 1546 1544 1543
1520 1523 1527 1529 1533 1535 1538 1540 1542 1544 1546 1548 1550 1551 1551 1552 1553 1554 1554 1555 1555 1555 1555 1554 1554 1554 1553 1553 1553 1552 1552 1551 1550 1550 1548 1547 1546 1545 1544 1543 1541 1540 1538
1518 1521 1524 1527 1530 1532 1535 1537 1539 1542 1544 1545 1547 1548 1549 1549 1550 1551 1551 1552 1552 1552 1552 1551 1551 1550 1550 1550 1549 1549 1548 1548 1547 1546 1545 1543 1542 1541 1540 1538 1537 1535 1534
1517 1519 1522 1525 1527 1530 1532 1534 1537 1539 1540 1542 1543 1545 1546 1546 1547 1548 1548 1549 1548 1548 1548 1548 1548 1547 1547 1547 1546 1545 1544 1544 1543 1541 1540 1539 1538 1537 1535 1534 1532 1531 1529
1515 1518 1520 1523 1525 1528 1530 1532 1534 1536 1538 1539 1541 1542 1543 1544 1545 1545 1545 1545 1545 1545 1545 1545 1544 1544 1544 1543 1542 1541 1540 1539 1538 1537 1536 1534 1533 1532 1530 1529 1527 1526 1524
1513 1516 1519 1521 1523 1526 1528 1530 1532 1534 1535 1537 1538 1539 1540 1541 1541 1542 1542 1542 1542 1542 1542 1542 1541 1540 1540 1539 1538 1537 1536 1534 1533 1532 1531 1530 1528 1527 1525 1524 1522 1520 1519
1512 1515 1517 1520 1521 1524 1526 1528 1530 1532 1533 1535 1536 1537 1538 1538 1539 1539 1539 1539 1539 1539 1539 1538 1537 1537 1536 1535 1534 1533 1531 1530 1529 1527 1526 1525 1523 1522 1520 1519 1517 1515 1513
1511 1513 1516 1518 1520 1522 1524 1526 1528 1530 1531 1533 1534 1535 1536 1536 1536 1536 1536 1536 1536 1536 1535 1535 1534 1533 1532 1531 1530 1528 1527 1526 1524 1523 1521 1520 1518 1517 1515 1513 1511 1510 1508
1510 1512 1515 1517 1519 1521 1523 1525 1526 1528 1529 1531 1532 1532 1533 1533 1534 1534 1534 1534 1533 1533 1532 1531 1530 1529 1528 1527 1526 1524 1523 1521 1520 1518 1516 1514 1513 1511 1509 1507 1505 1504 1502
1509 1511 1513 1515 1517 1519 1521 1523 1525 1526 1527 1528 1529 1530 1531 1531 1531 1531 1531 1531 1530 1530 1529 1528 1526 1525 1524 1522 1521 1519 1518 1516 1515 1513 1511 1509 1507 1505 1503 1501 1500 1498 1496
1508 1510 1512 1514 1516 1518 1520 1522 1523 1524 1525 1526 1527 1528 1528 1529 1529 1528 1528 1528 1527 1526 1525 1524 1523 1521 1520 1518 1516 1515 1513 1511 1510 1508 1506 1504 1502 1500 1498 1496 1494 1492 1490
1508 1510 1512 1514 1515 1517 1519 1520 1521 1522 1523 1524 1525 1525 1526 1526 1525 1525 1525 1524 1523 1522 1521 1520 1519 1517 1516 1514 1512 1510 1508 1506 1504 1502 1500 1498 1496 1494 1492 1490 1488 1486 1484